Location: Marquette
(46.5440°N, 87.3950°W)
Time: 23:34:31
(UTC-04:00)

Daily predictions for brighter satellites

Satellite Brightness Start Highest point End
(mag) Time Altitude Azimuth Time Altitude Azimuth Time Altitude Azimuth
Intercosmos 25 Rocket 3.5 21:19:24 10° S 21:22:41 54° E 21:27:17 10° NNE
Lacrosse 4 Rocket 2.7 21:19:53 10° NW 21:24:00 43° WSW 21:28:11 10° S
Cosmos 1408 2.6 21:20:53 10° N 21:24:36 86° WSW 21:28:14 10° S
Envisat 3.2 21:19:46 10° SSE 21:24:42 54° ENE 21:29:39 10° N
Cosmos 1867 3.8 21:19:18 10° NNW 21:24:45 63° NE 21:30:09 10° SE
Helios 1B rocket 3.0 21:21:49 10° NNE 21:25:41 38° E 21:29:30 10° SSE
Cosmos 1869 3.6 21:22:29 10° SSW 21:26:25 74° W 21:30:24 10° N
CZ-4B DEB 3.3 21:23:48 10° SE 21:26:38 37° ENE 21:29:29 10° N
ATLAS 5 CENTAUR R/B 2.5 21:22:24 10° NW 21:28:19 81° NE 21:34:48 10° SE
Cosmos 2242 Rocket 3.6 21:24:14 10° S 21:28:44 78° E 21:33:12 10° NNE
GENESIS II 4.2 21:26:20 10° SSW 21:30:23 81° SE 21:34:28 10° NE
H-2A R/B 4.0 21:30:38 10° ENE 21:32:25 12° NE 21:34:12 10° NNE
Cosmos 2279 Rocket 4.0 21:30:32 10° S 21:36:42 68° E 21:42:54 10° NNE
Cosmos 2322 4.3 21:31:55 10° S 21:37:02 35° ESE 21:42:09 10° NE
CENTAUR R/B 4.5 21:36:11 10° W 21:41:59 34° NNW 21:48:31 10° NNE
ARGOS 4.5 21:37:49 10° ESE 21:42:01 24° ENE 21:46:14 10° N
SL-16 R/B 2.4 21:36:30 10° SSW 21:42:11 81° WNW 21:47:54 10° NNE
Cosmos 1428 Rocket 4.5 21:40:10 10° N 21:46:19 84° E 21:52:27 10° S
ERS-1 Rocket 3.5 21:42:21 10° SE 21:47:04 42° ENE 21:51:48 10° N
SeaSat 1 3.9 21:45:17 10° E 21:49:12 24° NE 21:53:07 10° N
Resurs 01 Rocket 3.3 21:47:26 10° SSW 21:51:28 34° W 21:55:33 10° NNW
H-2A R/B 4.4 21:55:50 10° ENE 21:56:22 10° NE 21:56:55 10° NE
Cosmos 1844 Rocket 3.4 21:53:08 10° NNW 21:58:23 40° NE 22:02:44 14° ESE
Cosmos 1908 Rocket 3.6 21:54:14 10° N 21:58:34 64° E 22:02:52 10° SSE
Cosmos 2278 Rocket 3.8 21:54:58 10° N 21:59:19 22° NE 22:03:37 10° E
Cosmos 2333 Rocket 3.8 22:00:04 13° ESE 22:01:25 14° E 22:04:15 10° ENE
YAOGAN 6 2.7 21:58:12 12° SSE 22:01:27 56° ENE 22:04:59 10° N
SPOT 5 3.8 21:59:59 14° ESE 22:03:19 31° ENE 22:07:19 10° N
Sich 1 Rocket 3.6 22:00:30 10° N 22:04:59 75° E 22:09:31 10° SSE
CZ-4C R/B 3.8 21:58:57 10° NNW 22:05:11 37° NE 22:11:50 11° E
USA 229 DEB 3.8 21:58:51 10° SSW 22:05:23 51° ESE 22:12:04 10° NE
USA 229 3.8 21:58:59 10° SSW 22:05:30 51° ESE 22:12:10 10° NE
Cosmos 1933 3.6 22:03:24 10° SSW 22:07:25 69° W 22:11:27 10° N
MetOp-A 4.5 22:04:25 14° SE 22:08:50 49° ENE 22:13:59 10° N
Cosmos 1782 Rocket 3.7 22:08:52 10° N 22:13:10 54° ENE 22:16:24 17° SSE
Meteor 2-10 Rocket 3.7 22:10:22 10° S 22:16:12 83° E 22:21:58 10° NNE
Cosmos 1777 Rocket 4.1 22:12:46 10° NNW 22:18:03 65° ENE 22:21:49 19° SE
SPOT 1/Viking Rocket 4.4 22:16:35 18° ESE 22:19:46 35° ENE 22:24:28 10° N
Cosmos 2219 Rocket 3.2 22:20:01 18° SE 22:22:32 25° ESE 22:27:02 10° NE
Okean 1-7 3.3 22:21:00 15° SSE 22:24:23 49° E 22:28:39 10° NNE
USA 245 4.3 22:21:27 19° SE 22:25:08 48° ENE 22:29:34 10° N
USA 267 3.7 22:20:27 10° NE 22:26:55 64° NNW 22:33:22 10° WSW
Okean 2 Rocket 3.3 22:23:47 10° N 22:28:16 57° ENE 22:30:55 23° SSE
Cosmos 1782 3.5 22:30:21 27° SE 22:31:44 34° E 22:35:23 10° NNE
Cosmos 2084 4.1 22:31:53 10° NNW 22:35:30 39° NE 22:37:17 24° E
Meteor 1-26 Rocket 4.4 22:29:51 10° SSW 22:35:34 82° W 22:41:27 10° N
Cosmos 1633 3.8 22:35:30 10° NNE 22:38:40 26° ENE 22:39:16 25° E
Cosmos 2263 Rocket 4.1 22:36:01 10° NW 22:40:28 25° WSW 22:44:55 10° SSW
Cosmos 1346 Rocket 4.2 22:46:34 22° E 22:46:34 22° E 22:49:26 10° NE
Terra 3.1 22:45:02 22° E 22:46:41 27° ENE 22:50:41 10° N
Cosmos 1703 Rocket 4.0 22:44:28 10° SSW 22:48:52 63° W 22:53:15 10° N
Abrixas rocket 2.3 22:51:02 10° WNW 22:54:19 73° N 22:55:07 47° E
Cosmos 2237 4.2 22:50:13 10° SSW 22:55:57 85° WNW 23:01:44 10° NNE
Atlas Centaur 2 4.0 22:55:47 10° SW 23:01:00 22° S 23:02:01 21° S
Cosmos 2151 Rocket 3.6 22:58:14 10° N 23:02:40 64° E 23:03:58 42° SE
MetOp-B 4.4 22:59:18 21° S 23:02:52 64° WSW 23:08:12 10° NNW
Cosmos 2360 Rocket 3.2 22:57:42 10° SW 23:03:10 48° WNW 23:08:40 10° NNE
USA 234 3.8 22:59:28 24° SSE 23:03:14 47° SW 23:09:32 10° WNW
CARTOSAT-1 4.4 23:02:55 32° E 23:03:48 35° ENE 23:07:46 10° N
BREEZE-M DEB (TANK) 4.2 22:59:49 10° W 23:03:59 82° S 23:19:20 10° ESE
COSMOS 2428 2.6 22:59:39 10° SSW 23:05:21 89° ESE 23:11:07 10° NNE
Meteor 1-10 Rocket 4.2 23:06:13 23° S 23:10:03 77° E 23:15:54 10° NNE
H-2A R/B 1.9 23:09:09 39° SSE 23:11:02 77° ENE 23:15:58 10° N
IGS 5A 4.2 23:10:49 36° E 23:11:21 37° ENE 23:15:12 10° N
Meteor 1-11 Rocket 3.8 23:06:17 10° N 23:11:45 58° ENE 23:13:39 38° SE
ATLAS 5 CENTAUR R/B 4.2 23:07:59 10° WNW 23:12:37 23° WSW 23:17:15 11° SSW
MOS 1-B Rocket 4.0 23:09:36 26° S 23:12:58 73° WSW 23:18:36 10° NNW
Cosmos 1844 3.7 23:08:24 10° NNW 23:14:06 76° WSW 23:16:28 36° SSE
Cosmos 1980 4.1 23:13:33 38° SE 23:14:30 41° ESE 23:19:46 10° NE
Okean 1 Rocket 3.9 23:13:23 10° N 23:17:31 36° ENE 23:17:54 35° E
Cosmos 1606 2.6 23:17:04 55° SSW 23:17:51 84° W 23:21:40 10° N
NOSS 0 Rocket 4.1 23:16:17 35° SSE 23:18:30 50° ESE 23:24:24 10° NE
Cosmos 1674 Rocket 3.8 23:20:35 46° E 23:20:38 46° E 23:24:47 10° NNE
SL-16 R/B 3.8 23:22:16 18° E 23:22:16 18° E 23:24:56 10° NE
ARGOS 3.6 23:19:00 26° S 23:21:53 57° W 23:27:12 10° NNW
DMSP B5D2-2 4.3 23:16:53 10° NNE 23:22:02 51° E 23:23:06 44° SE
Cosmos 1570 Rocket 3.9 23:22:48 32° S 23:25:16 78° ESE 23:30:35 10° NNE
SeaSat 1 2.6 23:24:45 41° S 23:26:21 65° WSW 23:31:17 10° NNW
Cosmos 1937 Rocket 4.0 23:25:34 10° NNW 23:30:37 45° ENE 23:31:47 38° E
H-2A R/B 1.9 23:31:01 65° SE 23:31:33 78° ENE 23:35:57 10° NNW
Cosmos 1536 3.2 23:29:33 10° N 23:33:19 48° ENE 23:33:19 48° ENE
Cosmos 2208 Rocket 3.9 23:33:32 35° SSW 23:35:55 86° ESE 23:41:15 10° NNE
SL-19 R/B 4.4 23:31:00 10° NNE 23:36:58 59° E 23:38:20 47° SSE
SPOT 5 4.1 23:39:13 22° SW 23:41:21 32° W 23:45:29 10° NNW
Cosmos 2237 Rocket 2.2 23:40:20 50° SSE 23:41:30 62° ESE 23:47:08 10° NNE
SL-08 R/B 4.4 23:35:41 10° N 23:41:51 83° W 23:44:04 42° S
Cosmos 1844 Rocket 3.8 23:37:11 10° NW 23:42:12 35° WSW 23:44:25 26° SSW
Cosmos 2278 Rocket 2.2 23:38:23 10° NNW 23:44:05 79° WSW 23:45:29 52° S
Cosmos 1553 Rocket 3.9 23:41:44 37° S 23:44:24 89° E 23:50:38 10° N
Cosmos 2333 Rocket 2.1 23:41:57 32° SSW 23:44:47 86° ESE 23:50:36 10° NNE
CZ-4C R/B 4.3 23:47:38 35° NE 23:47:38 35° NE 23:50:22 10° N
Cosmos 2150 Rocket 4.2 23:42:42 10° NNW 23:48:08 65° ENE 23:49:08 54° ESE
NOSS 3-1 (C) 3.4 23:43:46 10° SW 23:49:37 84° NW 23:56:17 10° NE
Iridium 4 Rocket 2.8 23:45:48 10° N 23:49:54 84° NE 23:49:54 84° NE
Cosmos 1300 Rocket 3.5 23:47:58 10° NNW 23:52:20 75° W 23:52:33 72° SW
